Location: B?jaj?g
(11.7167°N, 92.6667°E)
Time: 05:51:57
(UTC+00:00)

ATLAS 2AS CENTAUR R/B - Pass Details

Date: 18 September 2020
Orbit: 939 x 1273 km, 63.7° (Epoch: 19 October)

Event Time Altitude Azimuth Distance (km) Brightness Sun altitude
Rises 13:39:24 0° 203° (SSW) 4,033 5.9 -28.0°
Reaches altitude 10° 13:42:02 10° 203° (SSW) 3,113 5.3 -28.6°
Maximum altitude 13:49:38 89° 294° (WNW) 1,245 2.9 -30.5°
Enters shadow 13:53:32 34° 22° (NNE) 1,945 3.9 -31.4°
